| time (UTC) | temp C | wind direction | speed KPH | gust KPH | rain 1hr cm | rain 24hr cm | rain mn cm | humidity % | barometer mb |
| 20260502180824 | 18 | 74 | 0.0 | 4.8 | 0.00 | 0.10 | 0.03 | 79 | 1017.2 |
| 20260502180334 | 18 | 74 | 0.0 | 4.8 | 0.00 | 0.10 | 0.03 | 79 | 1017.4 |
| 20260502170338 | 20 | 72 | 3.2 | 12.9 | 0.00 | 0.10 | 0.03 | 77 | 1016.8 |
| 20260502164326 | 21 | 72 | 4.8 | 11.3 | 0.00 | 0.10 | 0.03 | 76 | 1016.8 |
| 20260502163823 | 21 | 72 | 3.2 | 8.0 | 0.00 | 0.10 | 0.03 | 76 | 1016.9 |
| 20260502163334 | 21 | 72 | 1.6 | 12.9 | 0.00 | 0.10 | 0.03 | 76 | 1017.0 |
| 20260502162824 | 21 | 72 | 4.8 | 14.5 | 0.00 | 0.10 | 0.03 | 76 | 1017.0 |
| 20260502162334 | 21 | 70 | 4.8 | 14.5 | 0.00 | 0.10 | 0.03 | 76 | 1016.9 |
| 20260502161828 | 21 | 71 | 1.6 | 11.3 | 0.00 | 0.10 | 0.03 | 76 | 1016.8 |
| 20260502161321 | 21 | 71 | 3.2 | 14.5 | 0.00 | 0.10 | 0.03 | 75 | 1016.9 |
| 20260502160835 | 21 | 72 | 3.2 | 14.5 | 0.00 | 0.10 | 0.03 | 75 | 1016.9 |
| 20260502160339 | 21 | 71 | 4.8 | 12.9 | 0.00 | 0.10 | 0.03 | 74 | 1017.2 |
| 20260502152335 | 21 | 69 | 3.2 | 12.9 | 0.00 | 0.10 | 0.03 | 75 | 1017.6 |
| 20260502151825 | 21 | 67 | 3.2 | 12.9 | 0.00 | 0.10 | 0.03 | 75 | 1017.7 |
| 20260502151323 | 21 | 71 | 1.6 | 11.3 | 0.00 | 0.10 | 0.03 | 74 | 1017.9 |
| 20260502150833 | 21 | 71 | 1.6 | 16.1 | 0.00 | 0.10 | 0.03 | 74 | 1017.9 |
| 20260502150327 | 21 | 71 | 3.2 | 16.1 | 0.00 | 0.10 | 0.03 | 75 | 1017.8 |
| 20260502130338 | 22 | 69 | 3.2 | 17.7 | 0.00 | 0.10 | 0.03 | 72 | 1018.8 |
| 20260502123331 | 21 | 46 | 3.2 | 9.7 | 0.00 | 0.10 | 0.03 | 76 | 1019.0 |
| 20260502122822 | 21 | 43 | 4.8 | 9.7 | 0.00 | 0.10 | 0.03 | 77 | 1019.2 |
| 20260502122333 | 21 | 42 | 4.8 | 9.7 | 0.00 | 0.10 | 0.03 | 77 | 1019.3 |
| 20260502121842 | 20 | 42 | 1.6 | 11.3 | 0.00 | 0.10 | 0.03 | 78 | 1019.3 |
| 20260502121336 | 20 | 42 | 1.6 | 11.3 | 0.00 | 0.10 | 0.03 | 79 | 1019.2 |
| 20260502120829 | 20 | 40 | 1.6 | 9.7 | 0.00 | 0.10 | 0.03 | 79 | 1019.3 |
| 20260502120340 | 20 | 40 | 3.2 | 9.7 | 0.00 | 0.10 | 0.03 | 80 | 1019.2 |
| 20260502115830 | 20 | 40 | 1.6 | 9.7 | 0.00 | 0.10 | 0.03 | 79 | 1019.1 |
| 20260502115332 | 20 | 40 | 3.2 | 9.7 | 0.00 | 0.10 | 0.03 | 79 | 1019.2 |
| 20260502114843 | 20 | 39 | 0.0 | 8.0 | 0.00 | 0.10 | 0.03 | 79 | 1019.5 |
| 20260502114333 | 20 | 39 | 1.6 | 6.4 | 0.00 | 0.10 | 0.03 | 80 | 1019.7 |
| 20260502113827 | 20 | 39 | 3.2 | 9.7 | 0.00 | 0.10 | 0.03 | 81 | 1019.7 |
| 20260502113337 | 20 | 39 | 3.2 | 9.7 | 0.00 | 0.10 | 0.03 | 81 | 1019.7 |
| 20260502112828 | 20 | 39 | 3.2 | 9.7 | 0.00 | 0.10 | 0.03 | 81 | 1019.6 |
| 20260502112341 | 20 | 38 | 3.2 | 9.7 | 0.00 | 0.10 | 0.03 | 82 | 1019.6 |
| 20260502111832 | 19 | 38 | 1.6 | 9.7 | 0.00 | 0.10 | 0.03 | 82 | 1019.5 |
| 20260502111329 | 19 | 38 | 3.2 | 9.7 | 0.00 | 0.10 | 0.03 | 82 | 1019.5 |
| 20260502110839 | 19 | 36 | 1.6 | 11.3 | 0.00 | 0.10 | 0.03 | 82 | 1019.6 |
| 20260502110330 | 19 | 34 | 4.8 | 11.3 | 0.00 | 0.10 | 0.03 | 83 | 1019.7 |
| 20260502105823 | 19 | 27 | 1.6 | 8.0 | 0.00 | 0.10 | 0.03 | 83 | 1019.7 |
| 20260502105333 | 19 | 27 | 1.6 | 9.7 | 0.00 | 0.10 | 0.03 | 83 | 1019.8 |
| 20260502104828 | 19 | 27 | 3.2 | 12.9 | 0.00 | 0.10 | 0.03 | 83 | 1019.8 |
| 20260502104341 | 19 | 26 | 3.2 | 12.9 | 0.00 | 0.10 | 0.03 | 83 | 1019.9 |
| 20260502103831 | 19 | 360 | 4.8 | 9.7 | 0.00 | 0.10 | 0.03 | 84 | 1020.0 |
| 20260502103328 | 19 | 351 | 1.6 | 8.0 | 0.00 | 0.10 | 0.03 | 83 | 1020.0 |
| 20260502102819 | 18 | 351 | 0.0 | 1.6 | 0.00 | 0.10 | 0.03 | 84 | 1020.0 |
| 20260502102332 | 18 | 351 | 0.0 | 0.0 | 0.00 | 0.10 | 0.03 | 83 | 1020.1 |
| 20260502101843 | 18 | 351 | 0.0 | 0.0 | 0.10 | 0.10 | 0.03 | 83 | 1020.2 |
| 20260502101333 | 18 | 351 | 0.0 | 0.0 | 0.10 | 0.10 | 0.03 | 83 | 1020.3 |
| 20260502100827 | 18 | 351 | 0.0 | 0.0 | 0.10 | 0.10 | 0.03 | 83 | 1020.3 |
| 20260502100331 | 18 | 351 | 0.0 | 0.0 | 0.10 | 0.10 | 0.03 | 83 | 1020.3 |
| 20260502091329 | 19 | 351 | 0.0 | 1.6 | 0.00 | 0.10 | 0.00 | 80 | 1020.4 |
| 20260502090823 | 19 | 351 | 0.0 | 4.8 | 0.00 | 0.10 | 0.00 | 80 | 1020.5 |
| 20260502090334 | 19 | 351 | 0.0 | 4.8 | 0.00 | 0.10 | 0.00 | 79 | 1020.5 |
| 20260502071334 | 18 | 351 | 0.0 | 0.0 | 0.00 | 0.71 | 0.00 | 83 | 1020.4 |
| 20260502070827 | 17 | 351 | 0.0 | 0.0 | 0.00 | 0.71 | 0.00 | 83 | 1020.4 |
| 20260502070318 | 17 | 351 | 0.0 | 0.0 | 0.00 | 0.71 | 0.00 | 83 | 1020.4 |
| 20260502065831 | 17 | 351 | 0.0 | 0.0 | 0.00 | 0.71 | 0.00 | 84 | 1020.4 |
| 20260502065327 | 17 | 351 | 0.0 | 0.0 | 0.00 | 0.71 | 0.00 | 84 | 1020.5 |
| 20260502064821 | 17 | 351 | 0.0 | 0.0 | 0.00 | 0.71 | 0.00 | 84 | 1020.5 |
| 20260502064333 | 17 | 351 | 0.0 | 0.0 | 0.00 | 0.71 | 0.00 | 84 | 1020.6 |
| 20260502063826 | 17 | 351 | 0.0 | 0.0 | 0.00 | 0.71 | 0.00 | 84 | 1020.6 |
| 20260502063335 | 17 | 351 | 0.0 | 0.0 | 0.00 | 0.71 | 0.00 | 83 | 1020.6 |
| 20260502062833 | 17 | 351 | 0.0 | 0.0 | 0.00 | 0.71 | 0.00 | 83 | 1020.6 |
| 20260502062327 | 17 | 351 | 0.0 | 0.0 | 0.00 | 0.71 | 0.00 | 83 | 1020.5 |
| 20260502061837 | 17 | 351 | 0.0 | 0.0 | 0.00 | 0.71 | 0.00 | 83 | 1020.5 |
| 20260502061328 | 17 | 351 | 0.0 | 0.0 | 0.00 | 0.71 | 0.00 | 83 | 1020.5 |
| 20260502060824 | 17 | 351 | 0.0 | 0.0 | 0.00 | 0.71 | 0.00 | 83 | 1020.3 |
| 20260502060335 | 17 | 351 | 0.0 | 0.0 | 0.00 | 0.71 | 0.00 | 83 | 1020.4 |
| 20260502055825 | 17 | 351 | 0.0 | 0.0 | 0.00 | 0.71 | 0.00 | 83 | 1020.3 |
| 20260502055336 | 17 | 351 | 0.0 | 0.0 | 0.00 | 0.71 | 0.00 | 83 | 1020.3 |
| 20260502054833 | 17 | 351 | 0.0 | 0.0 | 0.00 | 0.71 | 0.00 | 83 | 1020.3 |
| 20260502054327 | 17 | 351 | 0.0 | 0.0 | 0.00 | 0.71 | 0.00 | 83 | 1020.2 |
| 20260502053837 | 17 | 351 | 0.0 | 3.2 | 0.00 | 0.71 | 0.00 | 83 | 1020.2 |
| 20260502053328 | 17 | 351 | 0.0 | 4.8 | 0.00 | 0.71 | 0.00 | 83 | 1020.1 |
| 20260502052839 | 17 | 351 | 1.6 | 4.8 | 0.00 | 0.71 | 0.00 | 83 | 1020.1 |
| 20260502052329 | 17 | 351 | 0.0 | 1.6 | 0.00 | 0.71 | 0.00 | 83 | 1020.1 |
| 20260502051839 | 17 | 351 | 0.0 | 3.2 | 0.00 | 0.71 | 0.00 | 83 | 1020.0 |
| 20260502051330 | 17 | 351 | 0.0 | 3.2 | 0.00 | 0.71 | 0.00 | 83 | 1020.0 |
| 20260502050827 | 17 | 351 | 0.0 | 3.2 | 0.00 | 0.71 | 0.00 | 83 | 1020.0 |
| 20260502050317 | 17 | 351 | 0.0 | 3.2 | 0.00 | 0.71 | 0.00 | 83 | 1020.1 |
| 20260502045834 | 17 | 351 | 1.6 | 3.2 | 0.00 | 0.71 | 0.00 | 83 | 1020.2 |
| 20260502045327 | 17 | 351 | 0.0 | 0.0 | 0.00 | 0.71 | 0.00 | 83 | 1020.1 |
| 20260502044821 | 17 | 351 | 0.0 | 0.0 | 0.00 | 0.71 | 0.00 | 83 | 1020.1 |
| 20260502044331 | 17 | 351 | 0.0 | 0.0 | 0.00 | 0.71 | 0.00 | 83 | 1020.2 |
| 20260502043827 | 17 | 351 | 0.0 | 3.2 | 0.00 | 0.71 | 0.00 | 83 | 1020.2 |
| 20260502043321 | 17 | 351 | 0.0 | 3.2 | 0.00 | 0.71 | 0.00 | 83 | 1020.2 |
| 20260502042838 | 17 | 351 | 0.0 | 1.6 | 0.00 | 0.71 | 0.00 | 83 | 1020.2 |
| 20260502042329 | 17 | 351 | 0.0 | 1.6 | 0.00 | 0.71 | 0.00 | 83 | 1020.2 |
| 20260502041818 | 17 | 351 | 0.0 | 1.6 | 0.00 | 0.71 | 0.00 | 83 | 1020.2 |
| 20260502041329 | 17 | 351 | 0.0 | 3.2 | 0.00 | 0.71 | 0.00 | 83 | 1020.3 |
| 20260502040822 | 17 | 351 | 0.0 | 3.2 | 0.00 | 0.71 | 0.00 | 83 | 1020.3 |
| 20260502040327 | 17 | 351 | 0.0 | 3.2 | 0.00 | 0.71 | 0.00 | 83 | 1020.3 |
| 20260502035817 | 17 | 351 | 0.0 | 3.2 | 0.00 | 0.71 | 0.00 | 83 | 1020.3 |
| 20260502035327 | 17 | 351 | 0.0 | 3.2 | 0.00 | 0.71 | 0.00 | 83 | 1020.4 |
| 20260502034825 | 17 | 351 | 0.0 | 1.6 | 0.00 | 0.71 | 0.00 | 83 | 1020.4 |
| 20260502034315 | 17 | 351 | 0.0 | 4.8 | 0.00 | 0.71 | 0.00 | 83 | 1020.4 |
| 20260502033829 | 17 | 351 | 1.6 | 4.8 | 0.00 | 0.71 | 0.00 | 83 | 1020.5 |
| 20260502033322 | 17 | 351 | 1.6 | 3.2 | 0.00 | 0.71 | 0.00 | 83 | 1020.5 |
| 20260502032833 | 17 | 351 | 0.0 | 1.6 | 0.00 | 0.71 | 0.00 | 83 | 1020.4 |
| 20260502032324 | 17 | 351 | 0.0 | 3.2 | 0.00 | 0.71 | 0.00 | 83 | 1020.4 |
| 20260502031837 | 17 | 351 | 0.0 | 3.2 | 0.00 | 0.71 | 0.00 | 83 | 1020.3 |
| 20260502031327 | 17 | 351 | 0.0 | 3.2 | 0.00 | 0.71 | 0.00 | 83 | 1020.2 |
| 20260502030828 | 17 | 351 | 0.0 | 0.0 | 0.00 | 0.71 | 0.00 | 83 | 1020.2 |
| 20260502030323 | 17 | 351 | 0.0 | 1.6 | 0.00 | 0.71 | 0.00 | 83 | 1020.2 |
| 20260502025830 | 17 | 351 | 0.0 | 1.6 | 0.00 | 0.79 | 0.00 | 83 | 1020.2 |
| 20260502025323 | 17 | 351 | 0.0 | 0.0 | 0.00 | 0.79 | 0.00 | 83 | 1020.3 |
| 20260502024836 | 17 | 351 | 0.0 | 0.0 | 0.00 | 0.79 | 0.00 | 83 | 1020.3 |
| 20260502024327 | 17 | 351 | 0.0 | 0.0 | 0.00 | 0.79 | 0.00 | 83 | 1020.3 |
| 20260502023837 | 17 | 351 | 0.0 | 0.0 | 0.00 | 0.79 | 0.00 | 83 | 1020.4 |
| 20260502023328 | 17 | 351 | 0.0 | 0.0 | 0.00 | 0.79 | 0.00 | 83 | 1020.4 |
| 20260502022823 | 17 | 351 | 0.0 | 0.0 | 0.00 | 0.79 | 0.00 | 83 | 1020.4 |
| 20260502022333 | 17 | 351 | 0.0 | 0.0 | 0.00 | 0.79 | 0.00 | 83 | 1020.5 |
| 20260502021827 | 17 | 351 | 0.0 | 1.6 | 0.00 | 0.79 | 0.00 | 83 | 1020.5 |
| 20260502021317 | 17 | 351 | 0.0 | 0.0 | 0.00 | 0.79 | 0.00 | 83 | 1020.6 |
| 20260502020829 | 17 | 351 | 0.0 | 3.2 | 0.00 | 0.79 | 0.00 | 83 | 1020.6 |
| 20260502020333 | 17 | 351 | 0.0 | 3.2 | 0.00 | 0.79 | 0.00 | 83 | 1020.6 |
| 20260502015823 | 17 | 351 | 0.0 | 3.2 | 0.00 | 0.79 | 0.00 | 83 | 1020.6 |
| 20260502015333 | 17 | 351 | 0.0 | 4.8 | 0.00 | 0.79 | 0.00 | 83 | 1020.7 |
| 20260502014827 | 17 | 351 | 1.6 | 4.8 | 0.00 | 0.79 | 0.00 | 83 | 1020.7 |
| 20260502014321 | 17 | 351 | 0.0 | 4.8 | 0.00 | 0.79 | 0.00 | 83 | 1020.7 |
| 20260502013812 | 17 | 351 | 1.6 | 4.8 | 0.00 | 0.79 | 0.00 | 83 | 1020.7 |
| 20260502013328 | 17 | 351 | 1.6 | 3.2 | 0.00 | 0.79 | 0.00 | 83 | 1020.8 |
| 20260502012333 | 17 | 351 | 0.0 | 4.8 | 0.00 | 0.79 | 0.00 | 83 | 1020.8 |
| 20260502011822 | 17 | 351 | 0.0 | 4.8 | 0.00 | 0.79 | 0.00 | 83 | 1020.9 |
| 20260502011333 | 17 | 351 | 0.0 | 6.4 | 0.00 | 0.79 | 0.00 | 83 | 1020.9 |
| 20260502010823 | 17 | 351 | 1.6 | 8.0 | 0.00 | 0.79 | 0.00 | 83 | 1020.9 |
| 20260502010337 | 17 | 351 | 4.8 | 8.0 | 0.00 | 0.79 | 0.00 | 84 | 1020.9 |
| 20260502005828 | 17 | 351 | 3.2 | 4.8 | 0.00 | 0.79 | 0.00 | 84 | 1020.9 |
| 20260502005321 | 17 | 351 | 0.0 | 1.6 | 0.00 | 0.79 | 0.00 | 84 | 1021.0 |
| 20260502004834 | 17 | 351 | 0.0 | 4.8 | 0.00 | 0.79 | 0.00 | 84 | 1021.0 |
| 20260502004327 | 17 | 351 | 0.0 | 4.8 | 0.00 | 0.79 | 0.00 | 84 | 1021.0 |
| 20260502003824 | 17 | 351 | 0.0 | 0.0 | 0.00 | 0.79 | 0.00 | 84 | 1021.1 |
| 20260502003334 | 17 | 351 | 0.0 | 1.6 | 0.00 | 0.79 | 0.00 | 84 | 1021.1 |
| 20260502002825 | 17 | 351 | 0.0 | 1.6 | 0.00 | 0.79 | 0.00 | 84 | 1021.3 |
| 20260502002322 | 16 | 351 | 0.0 | 0.0 | 0.00 | 0.79 | 0.00 | 84 | 1021.3 |
| 20260502001815 | 16 | 351 | 0.0 | 4.8 | 0.00 | 0.79 | 0.00 | 84 | 1021.3 |
| 20260502001328 | 16 | 351 | 1.6 | 4.8 | 0.00 | 0.79 | 0.00 | 84 | 1021.4 |
| 20260502000822 | 16 | 351 | 1.6 | 3.2 | 0.00 | 0.79 | 0.00 | 84 | 1021.5 |
| 20260502000333 | 16 | 351 | 0.0 | 1.6 | 0.00 | 0.79 | 0.00 | 84 | 1021.6 |
| 20260501235823 | 16 | 351 | 0.0 | 3.2 | 0.00 | 0.79 | 0.00 | 84 | 1021.6 |
| 20260501235334 | 16 | 351 | 0.0 | 3.2 | 0.00 | 0.79 | 0.00 | 84 | 1021.6 |
| 20260501234824 | 16 | 351 | 0.0 | 1.6 | 0.00 | 0.79 | 0.00 | 84 | 1021.7 |
| 20260501234319 | 16 | 351 | 0.0 | 1.6 | 0.00 | 0.79 | 0.00 | 84 | 1021.7 |
| 20260501233811 | 16 | 351 | 0.0 | 3.2 | 0.00 | 0.79 | 0.00 | 84 | 1021.7 |
| 20260501233329 | 16 | 351 | 1.6 | 3.2 | 0.00 | 0.79 | 0.00 | 84 | 1021.9 |
| 20260501232823 | 16 | 351 | 0.0 | 3.2 | 0.00 | 0.79 | 0.00 | 84 | 1021.8 |
| 20260501232333 | 16 | 351 | 1.6 | 3.2 | 0.00 | 0.79 | 0.00 | 84 | 1021.9 |
| 20260501231827 | 16 | 351 | 1.6 | 4.8 | 0.00 | 0.79 | 0.00 | 84 | 1021.9 |
| 20260501231337 | 16 | 351 | 1.6 | 4.8 | 0.00 | 0.79 | 0.00 | 84 | 1022.0 |
| 20260501230828 | 16 | 351 | 0.0 | 3.2 | 0.00 | 0.79 | 0.00 | 84 | 1021.8 |
| 20260501230322 | 16 | 351 | 1.6 | 4.8 | 0.00 | 0.79 | 0.00 | 84 | 1021.9 |
| 20260501225833 | 16 | 351 | 1.6 | 3.2 | 0.00 | 0.79 | 0.00 | 84 | 1021.9 |
| 20260501225326 | 16 | 351 | 0.0 | 3.2 | 0.00 | 0.79 | 0.00 | 84 | 1021.8 |
| 20260501224819 | 16 | 351 | 0.0 | 0.0 | 0.00 | 0.79 | 0.00 | 84 | 1021.9 |
| 20260501224333 | 16 | 351 | 0.0 | 0.0 | 0.00 | 0.79 | 0.00 | 84 | 1021.9 |
| 20260501223823 | 16 | 351 | 0.0 | 0.0 | 0.00 | 0.79 | 0.00 | 84 | 1021.9 |
| 20260501223334 | 16 | 351 | 0.0 | 0.0 | 0.00 | 0.79 | 0.00 | 84 | 1021.9 |
| 20260501222824 | 16 | 351 | 0.0 | 0.0 | 0.00 | 0.79 | 0.00 | 84 | 1021.9 |
| 20260501222339 | 17 | 351 | 0.0 | 1.6 | 0.00 | 0.79 | 0.00 | 84 | 1021.9 |
| 20260501221829 | 17 | 351 | 0.0 | 4.8 | 0.00 | 0.79 | 0.00 | 84 | 1021.9 |
| 20260501221339 | 16 | 351 | 3.2 | 4.8 | 0.00 | 0.79 | 0.00 | 84 | 1021.9 |
| 20260501220830 | 16 | 351 | 1.6 | 3.2 | 0.00 | 0.79 | 0.00 | 84 | 1022.0 |
| 20260501220338 | 16 | 351 | 1.6 | 3.2 | 0.00 | 0.79 | 0.00 | 84 | 1022.0 |
| 20260501215828 | 16 | 351 | 0.0 | 3.2 | 0.00 | 0.79 | 0.15 | 84 | 1022.1 |
| 20260501215341 | 16 | 351 | 0.0 | 3.2 | 0.00 | 0.79 | 0.15 | 84 | 1022.2 |
| 20260501214832 | 16 | 351 | 0.0 | 3.2 | 0.00 | 0.79 | 0.15 | 84 | 1022.2 |
| 20260501214329 | 16 | 351 | 0.0 | 3.2 | 0.00 | 0.79 | 0.15 | 84 | 1022.2 |
| 20260501213839 | 16 | 351 | 1.6 | 3.2 | 0.00 | 0.79 | 0.15 | 84 | 1022.2 |
| 20260501213330 | 16 | 351 | 1.6 | 4.8 | 0.00 | 0.79 | 0.15 | 84 | 1022.2 |
| 20260501212823 | 16 | 351 | 1.6 | 4.8 | 0.00 | 0.79 | 0.15 | 84 | 1022.2 |
| 20260501212334 | 16 | 351 | 1.6 | 3.2 | 0.00 | 0.79 | 0.15 | 84 | 1022.3 |
| 20260501211824 | 16 | 351 | 0.0 | 1.6 | 0.00 | 0.79 | 0.15 | 84 | 1022.4 |
| 20260501211334 | 16 | 351 | 0.0 | 1.6 | 0.00 | 0.79 | 0.15 | 84 | 1022.5 |
| 20260501210828 | 17 | 351 | 0.0 | 1.6 | 0.00 | 0.79 | 0.15 | 83 | 1022.5 |
| 20260501210325 | 17 | 351 | 0.0 | 3.2 | 0.00 | 0.79 | 0.15 | 83 | 1022.4 |
| 20260501205838 | 17 | 351 | 0.0 | 6.4 | 0.00 | 0.79 | 0.15 | 84 | 1022.4 |
| 20260501205329 | 17 | 351 | 0.0 | 6.4 | 0.00 | 0.79 | 0.15 | 84 | 1022.4 |
| 20260501204825 | 17 | 351 | 1.6 | 3.2 | 0.00 | 0.79 | 0.15 | 84 | 1022.3 |
| 20260501204335 | 17 | 351 | 0.0 | 3.2 | 0.00 | 0.79 | 0.15 | 84 | 1022.3 |
| 20260501203826 | 17 | 351 | 0.0 | 3.2 | 0.00 | 0.79 | 0.15 | 84 | 1022.3 |
| 20260501203336 | 17 | 351 | 0.0 | 0.0 | 0.00 | 0.79 | 0.15 | 83 | 1022.2 |
| 20260501202829 | 17 | 351 | 0.0 | 0.0 | 0.00 | 0.79 | 0.15 | 83 | 1022.1 |
| 20260501202326 | 17 | 351 | 0.0 | 3.2 | 0.00 | 0.79 | 0.15 | 83 | 1022.0 |
| 20260501201823 | 17 | 351 | 0.0 | 3.2 | 0.00 | 0.79 | 0.15 | 83 | 1021.9 |
| 20260501201334 | 17 | 351 | 1.6 | 4.8 | 0.00 | 0.79 | 0.15 | 83 | 1021.9 |
| 20260501200824 | 17 | 351 | 0.0 | 4.8 | 0.00 | 0.79 | 0.15 | 83 | 1021.7 |
| 20260501200318 | 17 | 351 | 1.6 | 3.2 | 0.00 | 0.79 | 0.15 | 83 | 1021.7 |
| 20260501195832 | 17 | 351 | 0.0 | 3.2 | 0.00 | 0.79 | 0.15 | 83 | 1021.7 |
| 20260501195322 | 17 | 351 | 0.0 | 3.2 | 0.00 | 0.79 | 0.15 | 83 | 1021.5 |
| 20260501194833 | 17 | 351 | 0.0 | 1.6 | 0.00 | 0.79 | 0.15 | 83 | 1021.5 |
| 20260501194327 | 17 | 351 | 0.0 | 1.6 | 0.00 | 0.79 | 0.15 | 83 | 1021.4 |
| 20260501193838 | 17 | 351 | 0.0 | 0.0 | 0.00 | 0.79 | 0.15 | 82 | 1021.5 |
| 20260501193328 | 17 | 351 | 0.0 | 1.6 | 0.00 | 0.79 | 0.15 | 82 | 1021.4 |
| 20260501192838 | 17 | 351 | 0.0 | 1.6 | 0.00 | 0.79 | 0.15 | 82 | 1021.4 |
| 20260501192329 | 17 | 351 | 0.0 | 1.6 | 0.00 | 0.79 | 0.15 | 82 | 1021.3 |
| 20260501191821 | 18 | 351 | 0.0 | 3.2 | 0.00 | 0.79 | 0.15 | 82 | 1021.2 |
| 20260501191332 | 18 | 351 | 0.0 | 8.0 | 0.00 | 0.79 | 0.15 | 82 | 1021.2 |
| 20260501190828 | 18 | 351 | 1.6 | 8.0 | 0.00 | 0.79 | 0.15 | 82 | 1021.1 |
| 20260501190325 | 18 | 351 | 1.6 | 8.0 | 0.00 | 0.79 | 0.15 | 82 | 1021.1 |
| 20260501185817 | 18 | 351 | 0.0 | 6.4 | 0.00 | 0.79 | 0.15 | 81 | 1021.1 |
| 20260501185334 | 18 | 351 | 3.2 | 8.0 | 0.00 | 0.79 | 0.15 | 81 | 1021.1 |
| 20260501184827 | 18 | 351 | 1.6 | 8.0 | 0.00 | 0.79 | 0.15 | 81 | 1021.1 |
| 20260501184338 | 18 | 351 | 1.6 | 9.7 | 0.00 | 0.79 | 0.15 | 81 | 1021.1 |
| 20260501183827 | 18 | 351 | 3.2 | 9.7 | 0.00 | 0.79 | 0.15 | 81 | 1021.0 |
| 20260501183318 | 18 | 351 | 0.0 | 9.7 | 0.00 | 0.79 | 0.15 | 81 | 1020.9 |
| 20260501182830 | 18 | 351 | 3.2 | 8.0 | 0.00 | 0.79 | 0.15 | 81 | 1020.9 |
| 20260501182328 | 18 | 351 | 0.0 | 6.4 | 0.00 | 0.79 | 0.15 | 81 | 1020.9 |
| 20260501181842 | 18 | 351 | 1.6 | 4.8 | 0.00 | 0.79 | 0.15 | 80 | 1020.9 |
| 20260501181334 | 18 | 351 | 1.6 | 9.7 | 0.00 | 0.79 | 0.15 | 80 | 1020.7 |